Regional Weather Roundup
Issued by NWS Bismarck, ND

Home | Current Version | Previous Version | Text Only | Print | Product List | Glossary On
Versions: 1 2 3 4 5 6 7 8 9 10 11 12 13 14 15 16 17 18 19 20 21 22 23 24 25 26 27 28 29 30 31 32 33 34 35 36 37 38 39 40 41 42 43 44 45 46 47 48 49 50
000
ASUS43 KBIS 240902
RWRBIS

NWR BROADCAST TEXT
NATIONAL WEATHER SERVICE BISMARCK ND
400 AM CDT TUE MAY 24 2016

NOTE: "FAIR" INDICATES FEW OR NO CLOUDS BELOW 12,000 FEET WITH NO
SIGNIFICANT WEATHER AND/OR OBSTRUCTIONS TO VISIBILITY.


CITY           SKY/WX    TMP DP  RH WIND       PRES   REMARKS
WILLISTON      CLEAR     45  39  79 SW3       29.80R
MINOT          PTCLDY    51  41  68 SW5       29.78R
MINOT AFB      NOT AVBL
BISMARCK       PTCLDY    51  47  86 SW3       29.79R
DICKINSON      PTCLDY    38  33  82 S6        29.81R
GARRISON         N/A     48  40  73 CALM      29.80R
HETTINGER ARPT CLEAR     37  33  85 NW6       29.84R
JAMESTOWN      CLOUDY    59  47  64 N6        29.79R
CARRINGTON     FAIR      57  48  72 SE7       29.79R
HAZEN          FAIR      43  39  87 SW6       29.82R
MANDAN         FAIR      46  43  87 CALM      29.80R
OAKES            N/A    N/A N/A N/A MISG        N/A
STANLEY        FAIR      45  43  93 CALM      29.82R
$$

CITY           SKY/WX    TMP DP  RH WIND       PRES   REMARKS
GRAND FORKS    LGT RAIN  58  51  78 W22       29.76S
GRAND FORKS AF NOT AVBL
DEVILS LAKE    CLOUDY    67  39  35 E14G21    29.76F
FARGO          MOCLDY    63  47  55 N15       29.78R
CAVALIER       CLOUDY    59  50  72 SW9G20    29.76R
GRAFTON        FAIR      59  54  82 SW20G26   29.79R
GWINNER        FAIR      59  52  77 NW21G28   29.79R
LANGDON        FAIR      55  48  76 CALM      29.77R
$$

CITY           SKY/WX    TMP DP  RH WIND       PRES   REMARKS
ABERDEEN       MOCLDY    61  47  59 N3        29.79R
MOBRIDGE       CLEAR     53  45  74 CALM      29.76R
BUFFALO          N/A     48  35  60 W7        29.80R
RAPID CITY     CLEAR     49  35  58 NW14      29.84S
GLASGOW        MOCLDY    45  41  86 SW5       29.80R
SIDNEY         PTCLDY    45  39  81 CALM      29.82R
WOLF POINT     PTCLDY    44  41  89 CALM      29.80R
GLENDIVE       PTCLDY    45  39  81 W6        29.86R
MILES CITY     MOCLDY    50  40  68 W3        29.86R
BAKER          MOCLDY    45  37  73 W5        29.87R
$$

CITY           SKY/WX    TMP DP  RH WIND       PRES   REMARKS
BILLINGS       CLOUDY    48  39  71 CALM      29.89S
GREAT FALLS    CLOUDY    40  39  97 SW5       29.89S
$$




USA.gov is the U.S. government's official web portal to all federal, state and local government web resources and services.